Location: Unspecified
(0.0000°N, 0.0000°E)
Time: 06:02:55
(UTC+00:00)

USA 238 DEB - Pass Details

Date: 31 May 2023
Orbit: 930 x 1283 km, 63.4° (Epoch: 27 September)

Event Time Altitude Azimuth Distance (km) Brightness Sun altitude
Rises 05:24:31 0° 357° (N) 4,172 7.1 -7.7°
Reaches altitude 10° 05:27:39 10° 7° (N) 3,237 6.6 -7.0°
Maximum altitude 05:34:31 32° 67° (ENE) 2,031 6.2 -5.4°
Drops below altitude 10° 05:41:24 10° 127° (SE) 3,266 6.7 -3.8°
Sets 05:44:32 0° 136° (SE) 4,215 7.1 -3.0°
